This is the latest recevied weather packets stored in our database for station/object KW4UJ. If no packets are shown the sender has not sent any weather packets the latest 10 day(s).
| Time | Temp. | Humidity | Pressure | Rain* | Wind** | Luminosity | Snow |
|---|---|---|---|---|---|---|---|
| 1777745627 | 15.56° C | 37% | 1013.2 hPa | 0 mm | - | 458 W/m² | - |
| 1777745325 | 15° C | 40% | 1013.2 hPa | 0 mm | - | 523 W/m² | - |
| 1777745022 | 15° C | 41% | 1013.4 hPa | 0 mm | - | 600 W/m² | - |
| 1777744718 | 13.89° C | 42% | 1013.4 hPa | 0 mm | - | 524 W/m² | - |
| 1777744418 | 14.44° C | 41% | 1013.5 hPa | 0 mm | - | 506 W/m² | - |
| 1777744116 | 13.89° C | 43% | 1013.7 hPa | 0 mm | - | 295 W/m² | - |
| 1777743812 | 14.44° C | 43% | 1013.4 hPa | 0 mm | - | 262 W/m² | - |
| 1777743509 | 13.89° C | 45% | 1013.5 hPa | 0 mm | - | 317 W/m² | - |
| 1777743206 | 13.89° C | 43% | 1013.6 hPa | 0 mm | - | 417 W/m² | - |
| 1777742904 | 13.33° C | 41% | 1013.6 hPa | 0 mm | - | 332 W/m² | - |
| 1777742601 | 13.89° C | 42% | 1013.7 hPa | 0 mm | - | 315 W/m² | - |
| 1777742296 | 13.89° C | 44% | 1013.7 hPa | 0 mm | - | 309 W/m² | - |
| 1777741994 | 13.89° C | 44% | 1013.5 hPa | 0 mm | - | 386 W/m² | - |
| 1777741691 | 13.89° C | 43% | 1013.8 hPa | 0 mm | - | 361 W/m² | - |
| 1777741387 | 13.89° C | 43% | 1013.8 hPa | 0 mm | - | 486 W/m² | - |
| 1777741083 | 13.89° C | 42% | 1013.9 hPa | 0 mm | - | 619 W/m² | - |
| 1777740780 | 13.89° C | 43% | 1013.7 hPa | 0 mm | - | 423 W/m² | - |
| 1777740477 | 14.44° C | 42% | 1013.7 hPa | 0 mm | - | 629 W/m² | - |
| 1777740174 | 13.33° C | 48% | 1014.1 hPa | 0 mm | - | 660 W/m² | - |
| 1777739870 | 12.78° C | 48% | 1013.9 hPa | 0 mm | - | 393 W/m² | - |
| 1777739567 | 12.78° C | 49% | 1014.4 hPa | 0 mm | - | 280 W/m² | - |
| 1777739264 | 12.78° C | 48% | 1014.1 hPa | 0 mm | - | 281 W/m² | - |
| 1777738960 | 12.78° C | 53% | 1014.3 hPa | 0 mm | - | 295 W/m² | - |
| 1777738657 | 12.22° C | 52% | 1014.2 hPa | 0 mm | - | 310 W/m² | - |
| 1777738354 | 11.67° C | 54% | 1014.2 hPa | 0 mm | - | 253 W/m² | - |
* Rain latest hour (hover to see other rain measurements)
** Current wind speed in m/s (hover to see current wind gust speed)